This is the latest recevied weather packets stored in our database for station/object NO9B. If no packets are shown the sender has not sent any weather packets the latest 10 day(s).
| Time | Temp. | Humidity | Pressure | Rain* | Wind** | Luminosity | Snow |
|---|---|---|---|---|---|---|---|
| 1787844244 | 25° C | 66% | 1017.8 hPa | 0 mm | - | 35 W/m² | - |
| 1787843943 | 25° C | 66% | 1017.8 hPa | 0 mm | - | 40 W/m² | - |
| 1787843638 | 24.44° C | 69% | 1017.8 hPa | 0 mm | - | 31 W/m² | - |
| 1787843335 | 24.44° C | 71% | 1017.9 hPa | 0 mm | - | 34 W/m² | - |
| 1787843030 | 23.89° C | 71% | 1017.6 hPa | 0 mm | - | 42 W/m² | - |
| 1787842730 | 23.89° C | 71% | 1017.8 hPa | 0 mm | - | 30 W/m² | - |
| 1787842425 | 23.89° C | 72% | 1017.6 hPa | 0 mm | - | 29 W/m² | - |
| 1787842125 | 23.89° C | 73% | 1017.5 hPa | 0 mm | - | 28 W/m² | - |
| 1787841820 | 23.33° C | 74% | 1017.5 hPa | 0 mm | - | 28 W/m² | - |
| 1787841516 | 23.33° C | 72% | 1017.7 hPa | 0 mm | - | 27 W/m² | - |
| 1787841214 | 23.33° C | 73% | 1017.6 hPa | 0 mm | - | 27 W/m² | - |
| 1787840910 | 23.33° C | 73% | 1017.4 hPa | 0 mm | - | 26 W/m² | - |
| 1787840605 | 22.78° C | 75% | 1017.2 hPa | 0 mm | - | 25 W/m² | - |
| 1787840300 | 22.78° C | 75% | 1017.2 hPa | 0 mm | - | 25 W/m² | - |
| 1787840001 | 22.78° C | 75% | 1017.2 hPa | 0 mm | - | 24 W/m² | - |
| 1787839700 | 22.22° C | 77% | 1017.1 hPa | 0 mm | - | 23 W/m² | - |
| 1787839395 | 22.22° C | 78% | 1017.2 hPa | 0 mm | - | 23 W/m² | - |
| 1787839095 | 22.22° C | 76% | 1017.2 hPa | 0 mm | - | 22 W/m² | - |
| 1787838794 | 21.67° C | 78% | 1017 hPa | 0 mm | - | 22 W/m² | - |
| 1787838489 | 21.67° C | 79% | 1017.1 hPa | 0 mm | - | 21 W/m² | - |
| 1787838188 | 21.67° C | 78% | 1016.9 hPa | 0 mm | - | 20 W/m² | - |
| 1787837888 | 21.11° C | 81% | 1017 hPa | 0 mm | - | 20 W/m² | - |
| 1787837587 | 21.11° C | 82% | 1017.1 hPa | 0 mm | - | 19 W/m² | - |
| 1787837287 | 21.11° C | 82% | 1017.1 hPa | 0 mm | - | 19 W/m² | - |
| 1787836982 | 20.56° C | 83% | 1017.2 hPa | 0 mm | - | 18 W/m² | - |
* Rain latest hour (hover to see other rain measurements)
** Current wind speed in m/s (hover to see current wind gust speed)